This demonstration page uses our WeatherBlox Daily Observations layout. Learn more.

Left ArrowRight Arrow

Hourly Observations for April 12, 2017

Temp ( °F °C ) Dew Point ( °F °C ) Humidity (%) Winds ( mph kmh ) Pressure ( in mb ) Visibility ( mi km ) Precip ( " mm )
12:15 am 00:15 Mostly Cloudy 72 22 57 14 61 61 N 8 13 30.12 1020 10 16 N/A
12:35 am 00:35 Partly Cloudy 70 21 57 14 64 64 N 6 9 30.15 1021 10 16 N/A
12:55 am 00:55 Clear 68 20 57 14 69 69 NNW 6 9 30.15 1021 10 16 N/A
1:15 am 01:15 Clear 68 20 57 14 69 69 N N/A 30.15 1021 10 16 N/A
1:35 am 01:35 Clear 68 20 57 14 69 69 N 6 9 30.15 1021 10 16 N/A
1:55 am 01:55 Clear 66 19 57 14 73 73 N 3 6 30.15 1021 10 16 N/A
2:15 am 02:15 Clear 66 19 55 13 68 68 N N/A 30.15 1021 10 16 N/A
2:35 am 02:35 Clear 64 18 55 13 73 73 N N/A 30.15 1021 10 16 N/A
2:55 am 02:55 Clear 64 18 55 13 73 73 N N/A 30.12 1020 10 16 N/A
3:15 am 03:15 Clear 61 16 57 14 88 88 NW 5 7 30.12 1020 10 16 N/A
3:35 am 03:35 Clear 61 16 57 14 88 88 N 3 6 30.15 1021 10 16 N/A
3:55 am 03:55 Clear 63 17 55 13 77 77 NNW 3 6 30.15 1021 10 16 N/A
4:15 am 04:15 Clear 63 17 55 13 77 77 N 5 7 30.15 1021 10 16 N/A
4:35 am 04:35 Clear 64 18 55 13 73 73 NE 3 6 30.15 1021 10 16 N/A
4:55 am 04:55 Partly Cloudy 64 18 55 13 73 73 NNE 3 6 30.15 1021 10 16 N/A
5:15 am 05:15 Cloudy 64 18 55 13 73 73 N N/A 30.15 1021 10 16 N/A
5:35 am 05:35 Cloudy 64 18 55 13 73 73 N N/A 30.15 1021 10 16 N/A
5:55 am 05:55 Cloudy 64 18 55 13 73 73 N N/A 30.15 1021 10 16 N/A
6:15 am 06:15 Cloudy 64 18 55 13 73 73 N N/A 30.15 1021 10 16 N/A
6:35 am 06:35 Cloudy 63 17 55 13 77 77 N 3 6 30.15 1021 10 16 N/A
6:55 am 06:55 Cloudy 63 17 55 13 77 77 N N/A 30.18 1022 10 16 N/A
7:15 am 07:15 Cloudy 64 18 55 13 73 73 NNE 3 6 30.18 1022 10 16 N/A
7:35 am 07:35 Cloudy 64 18 57 14 78 78 NNE 3 6 30.18 1022 10 16 N/A
7:55 am 07:55 Cloudy 64 18 59 15 83 83 N 3 6 30.21 1023 10 16 N/A
8:15 am 08:15 Partly Cloudy 64 18 57 14 78 78 N 3 6 30.21 1023 10 16 N/A
8:35 am 08:35 Partly Cloudy 66 19 57 14 73 73 N 5 7 30.21 1023 10 16 N/A
8:55 am 08:55 Cloudy 66 19 59 15 78 78 NNW 5 7 30.21 1023 10 16 N/A
9:15 am 09:15 Cloudy 64 18 57 14 78 78 NNW 7 11 30.24 1024 10 16 N/A
9:35 am 09:35 Cloudy with Rain 64 18 59 15 83 83 NNW 10 17 30.24 1024 10 16 N/A
9:55 am 09:55 Mostly Cloudy with Light Rain 63 17 59 15 88 88 NNE 3 6 30.24 1024 10 16 0.01 0.25
10:15 am 10:15 Sunny 64 18 61 16 88 88 N 7 11 30.27 1025 10 16 N/A
10:35 am 10:35 Sunny 64 18 61 16 88 88 N 10 17 30.27 1025 10 16 N/A
10:55 am 10:55 Sunny 64 18 59 15 83 83 N 7 11 30.27 1025 10 16 N/A
11:15 am 11:15 Sunny 66 19 59 15 78 78 N 8 13 30.27 1025 10 16 N/A
11:35 am 11:35 Sunny 68 20 59 15 73 73 NNE 5 7 30.27 1025 10 16 N/A
11:55 am 11:55 Partly Cloudy 70 21 59 15 69 69 N 6 9 30.27 1025 10 16 N/A
12:15 pm 12:15 Mostly Cloudy 70 21 59 15 69 69 N 7 11 30.24 1024 10 16 N/A
12:35 pm 12:35 Mostly Cloudy 70 21 59 15 69 69 N 5 7 30.24 1024 10 16 N/A
12:55 pm 12:55 Mostly Cloudy 72 22 59 15 65 65 NNW 6 9 30.24 1024 10 16 N/A
1:15 pm 13:15 Mostly Cloudy 73 23 59 15 61 61 NNW 10 17 30.24 1024 10 16 N/A
1:35 pm 13:35 Partly Cloudy 73 23 55 13 53 53 WNW 12 19 30.24 1024 10 16 N/A
1:55 pm 13:55 Partly Cloudy 72 22 55 13 57 57 NW 8 13 30.24 1024 10 16 N/A
2:15 pm 14:15 Partly Cloudy 75 24 54 12 47 47 W 13 20 30.24 1024 10 16 N/A
2:35 pm 14:35 Partly Cloudy 75 24 52 11 44 44 W 6 9 30.24 1024 10 16 N/A
2:55 pm 14:55 Sunny 75 24 52 11 44 44 N 13 20 30.21 1023 10 16 N/A
3:15 pm 15:15 Sunny 77 25 50 10 39 39 NW 7 11 30.21 1023 10 16 N/A
3:35 pm 15:35 Sunny 77 25 48 9 36 36 NW 10 17 30.21 1023 10 16 N/A
3:55 pm 15:55 Sunny 77 25 46 8 34 34 WNW 8 13 30.21 1023 10 16 N/A
4:15 pm 16:15 Sunny 79 26 50 10 37 37 NW 15 24 30.21 1023 10 16 N/A
4:35 pm 16:35 Sunny 77 25 46 8 34 34 WNW 10 17 30.21 1023 10 16 N/A
4:55 pm 16:55 Sunny 77 25 46 8 34 34 NNW 10 17 30.21 1023 10 16 N/A
5:15 pm 17:15 Sunny 77 25 46 8 34 34 NW 13 20 30.21 1023 10 16 N/A
5:35 pm 17:35 Sunny 77 25 46 8 34 34 NNW 12 19 30.21 1023 10 16 N/A
5:55 pm 17:55 Sunny 77 25 43 6 30 30 N 12 19 30.21 1023 10 16 N/A
6:15 pm 18:15 Sunny 77 25 43 6 30 30 NW 7 11 30.21 1023 10 16 N/A
6:35 pm 18:35 Sunny 75 24 41 5 29 29 WNW 8 13 30.21 1023 10 16 N/A
6:55 pm 18:55 Sunny 73 23 39 4 29 29 NNW 9 15 30.24 1024 10 16 N/A
7:15 pm 19:15 Sunny 73 23 37 3 27 27 N 10 17 30.24 1024 10 16 N/A
7:35 pm 19:35 Sunny 73 23 36 2 25 25 N 8 13 30.24 1024 10 16 N/A
7:55 pm 19:55 Clear 70 21 36 2 29 29 N 8 13 30.24 1024 10 16 N/A
8:15 pm 20:15 Clear 70 21 34 1 27 27 NNW 9 15 30.27 1025 10 16 N/A
8:35 pm 20:35 Clear 68 20 34 1 28 28 N 7 11 30.27 1025 10 16 N/A
8:55 pm 20:55 Clear 68 20 34 1 28 28 N 7 11 30.27 1025 10 16 N/A
9:15 pm 21:15 Clear 68 20 36 2 30 30 N 5 7 30.30 1026 10 16 N/A
9:35 pm 21:35 Clear 64 18 36 2 34 34 N 5 7 30.30 1026 10 16 N/A
9:55 pm 21:55 Clear 63 17 36 2 37 37 N 5 7 30.30 1026 10 16 N/A
10:15 pm 22:15 Clear 64 18 37 3 37 37 N 8 13 30.30 1026 10 16 N/A
10:35 pm 22:35 Clear 63 17 37 3 39 39 N 9 15 30.30 1026 10 16 N/A
10:55 pm 22:55 Clear 63 17 37 3 39 39 N 8 13 30.30 1026 10 16 N/A
11:15 pm 23:15 Clear 63 17 39 4 42 42 N 8 13 30.33 1027 10 16 N/A
11:35 pm 23:35 Clear 63 17 39 4 42 42 N 8 13 30.33 1027 10 16 N/A
11:55 pm 23:55 Clear 63 17 39 4 42 42 N 7 11 30.33 1027 10 16 N/A

Powered by AerisWeather